Regional Weather Roundup
Issued by NWS

Home | Current Version | Previous Version | Graphics & Text | Print | Product List | Glossary On
Versions: 1 2 3 4 5 6 7 8 9 10 11 12 13 14 15 16 17 18 19 20 21 22 23 24 25 26 27 28 29 30 31 32 33 34 35 36 37 38 39 40 41 42 43 44 45 46 47 48 49 50
000
ASUS45 KBOU 192007
RWRCO

WEATHER ROUNDUP FOR COLORADO
NATIONAL WEATHER SERVICE DENVER/BOULDER CO
200 PM MDT TUE AUG 19 2014

NOTE: "FAIR" INDICATES FEW OR NO CLOUDS BELOW 12000 FEET WITH NO
SIGNIFICANT WEATHER AND/OR OBSTRUCTIONS TO VISIBILITY.

COZ001>005-013-030-031-192100-
...NORTHWEST COLORADO...

CITY           SKY/WX    TMP DP  RH WIND       PRES   REMARKS
CRAIG          CLOUDY    62  54  74 NW3       30.14F
HAYDEN         CLOUDY    57  52  82 N6        30.15F
MEEKER         CLOUDY    63  54  72 VRB3      30.13F
MOUNT WERNER   NOT AVBL
STEAMBOAT SPGS CLOUDY    59  50  73 NW9       30.17F
WALDEN         CLOUDY    66  37  34 SW9G16    30.20S
$$

COZ006>008-011-192100-
...WEST CENTRAL VALLEYS...

CITY           SKY/WX    TMP DP  RH WIND       PRES   REMARKS
GRAND JUNCTION PTSUNNY   73  56  54 NW17G25   29.98F
MONTROSE       PTSUNNY   81  48  31 NW8       30.03F
EAGLE          MOSUNNY   75  39  27 CALM      30.08F
RIFLE          CLOUDY    78  45  30 MISG      30.01F
DELTA          PTSUNNY   85  44  23 S7        29.97F
NUCLA          PTSUNNY   81  46  30 N9        30.05F
$$

COZ017>023-064>068-192100-
...SOUTHWEST COLORADO...

CITY           SKY/WX    TMP DP  RH WIND       PRES   REMARKS
DURANGO        PTSUNNY   78  42  27 CALM      30.08F
CORTEZ         MOSUNNY   82  45  27 S9        30.03F
PAGOSA SPRINGS PTSUNNY   79  32  18 SW10G26   30.16F
TELLURIDE      PTSUNNY   68  39  34 S6        30.24F
WOLF CREEK PAS NOT AVBL
$$

COZ009-010-012-014-032>034-037-058>063-192100-
...CENTRAL COLORADO...

CITY           SKY/WX    TMP DP  RH WIND       PRES   REMARKS
ASPEN          PTSUNNY   75  40  28 NW12G18   30.12F
BUENA VISTA    NOT AVBL
COPPER MTN     PTSUNNY   61  30  31 S9G17     30.47F
BERTHOUD PASS  PTSUNNY   48  46  93 N9G21     30.52F THUNDER
COTTONWOOD PAS PTSUNNY   70  36  28 SE12G23   30.30F THUNDER
GUNNISON       PTSUNNY   68  41  37 SE7       30.17F
KREMMLING      CLOUDY    77  28  16 NW5       30.12F
LEADVILLE      PTSUNNY   65  33  30 E5        30.29F
MONARCH PASS   PTSUNNY   54  41  62 SW12      30.57F
SALIDA         PTSUNNY   66  48  52 W12G25    30.20R
SUNLIGHT       PTSUNNY   61  48  63 CALM      30.39F
WILKERSON PASS NOT AVBL
$$

COZ069>075-192100-
...SAN LUIS VALLEY/SANGRE DE CRISTO MOUNTAINS...

CITY           SKY/WX    TMP DP  RH WIND       PRES   REMARKS
ALAMOSA          N/A     81  39  22 S10G23    30.13F
LA VETA PASS   MOSUNNY   73  41  31 SW6       30.34F
SAGUACHE       PTSUNNY   73  41  31 SE5       30.17F
$$

COZ035-036-038>040-192100-
...NORTHERN COLORADO FRONT RANGE...

CITY           SKY/WX    TMP DP  RH WIND       PRES   REMARKS
DENVER INTL AP PTSUNNY   88  40  18 NE7       29.93F
DMNS CITY PARK   N/A     90  41  17 N6G12     29.91F
AURORA         PTSUNNY   88  38  17 NW6       29.95F
FRONT RANGE AP PTSUNNY   90  39  17 NE6       29.94
ERIE MUNI ARPT MOSUNNY   85  42  22 NE6       29.92S
BOULDER MUN AP MOSUNNY   82  50  32 CALM      29.94R
CENTENNIAL     PTSUNNY   86  37  17 E8        29.96F
BROOMFIELD     PTSUNNY   86  41  20 NW6       29.97S
FORT COLLINS   MOSUNNY   82  54  36 S7        29.90F
LONGMONT       MOSUNNY   85  53  33 NW7       29.94S
$$

COZ041-046-047-076>085-087-088-192100-
...PIKES PEAK/PALMER DIVIDE AND SOUTHERN FOOTHILLS...

CITY           SKY/WX    TMP DP  RH WIND       PRES   REMARKS
COLO. SPRINGS  PTSUNNY   82  44  26 S6        30.00F THUNDER
A. F. ACADEMY  MOSUNNY   77  48  35 S15       30.03S
ELLICOTT       MOSUNNY   85  43  22 S8        29.99F
FALCON         MOSUNNY   80  42  25 S9        30.07F
FORT CARSON    MOSUNNY   86  46  24 SE5       29.97F
LIMON          SUNNY     91  38  15 VRB7      29.93F
MONUMENT HILL  MOSUNNY   77  41  27 E5        30.06F
TRINIDAD       PTSUNNY   88  43  20 S17       29.98S
$$

COZ042>045-048>051-090-091-192100-
...NORTHEAST COLORADO...

CITY           SKY/WX    TMP DP  RH WIND       PRES   REMARKS
GREELEY ARPT   MOSUNNY   88  50  27 NE3       29.89F
AKRON          SUNNY     90  47  22 S14G23    29.90F
BURLINGTON     SUNNY     92  49  22 S13       29.87F
WRAY             N/A     92  51  25 E10G17    29.85F
STERLING       SUNNY     93  61  33 SE6       29.84F
HOLYOKE        NOT AVBL
FORT MORGAN    SUNNY     89  51  27 E5        29.89F
$$

COZ086-089-092>099-192100-
...SOUTHEAST COLORADO...

CITY           SKY/WX    TMP DP  RH WIND       PRES   REMARKS
PUEBLO         SUNNY     93  41  16 SE7       29.87F
LA JUNTA       SUNNY     95  44  17 S10       29.85F
LAMAR          MOSUNNY   96  42  15 CALM      29.83F
SPRINGFIELD      N/A     94  48  20 S21G26    29.90F
$$


USA.gov is the U.S. government's official web portal to all federal, state and local government web resources and services.